Location: Alfortville
(48.8058°N, 2.4204°E)
Time: 00:59:27
(UTC+00:00)

Cosmos 1980 Rocket - Visible Passes

Search period start: 22 May 2022 00:00
Search period end: 01 June 2022 00:00
Orbit: 828 x 851 km, 71.0° (Epoch: 21 May)

Date Brightness Start Highest point End Pass type
(mag) Time Alt. Az. Time Alt. Az. Time Alt. Az.
22 May 2.2 21:27:06 10° SSW 21:32:39 64° ESE 21:38:16 10° NNE visible
22 May 4.1 23:12:17 10° WSW 23:17:06 28° NW 23:21:58 10° NNE visible
23 May 2.2 21:11:24 10° S 21:16:55 60° ESE 21:22:30 10° NE visible
23 May 4.0 22:56:26 10° WSW 23:01:19 29° NW 23:06:15 10° NNE visible
24 May 2.3 20:55:42 10° S 21:01:11 57° ESE 21:06:44 10° NE visible
24 May 4.0 22:40:34 10° WSW 22:45:31 31° NW 22:50:32 10° NNE visible
25 May 5.4 00:31:10 10° NNW 00:31:33 10° NNW 00:31:56 10° NNW visible
25 May 2.3 20:40:00 10° S 20:45:27 53° ESE 20:50:58 10° NE visible
25 May 4.0 22:24:43 10° WSW 22:29:44 32° NW 22:34:49 10° NNE visible
26 May 5.3 00:14:45 10° NNW 00:15:43 10° NNW 00:16:42 10° NNW visible
26 May 2.4 20:24:18 10° S 20:29:43 50° ESE 20:35:12 10° NE visible
26 May 3.9 22:08:52 10° WSW 22:13:57 33° NW 22:19:06 10° NNE visible
26 May 5.3 23:58:32 10° NW 23:59:53 11° NNW 00:01:12 10° N visible
27 May 3.9 21:53:01 10° WSW 21:58:10 35° NW 22:03:22 10° NNE visible
27 May 5.3 23:42:26 10° NW 23:44:02 11° NNW 23:45:39 10° N visible
28 May 3.8 21:37:11 10° WSW 21:42:23 37° NW 21:47:39 10° NNE visible
28 May 5.3 23:26:21 10° NW 23:28:12 11° NNW 23:30:03 10° N visible
29 May 5.4 02:59:29 10° N 03:02:17 14° NNE 03:05:05 10° ENE visible
29 May 3.8 21:21:21 10° WSW 21:26:36 39° NW 21:31:55 10° NNE visible
29 May 5.3 23:10:17 10° NW 23:12:22 12° NNW 23:14:26 10° N visible
30 May 5.5 02:43:49 10° N 02:46:27 13° NNE 02:49:05 10° ENE visible
30 May 3.7 21:05:31 10° WSW 21:10:50 40° NW 21:16:12 10° NNE visible
30 May 5.4 22:54:15 10° NW 22:56:32 12° NNW 22:58:48 10° N visible
31 May 5.6 02:28:10 10° N 02:30:37 13° NNE 02:33:04 10° NE visible
31 May 3.6 20:49:42 10° WSW 20:55:03 42° NW 21:00:28 10° NNE visible
31 May 5.4 22:38:14 10° NW 22:40:42 13° NNW 22:43:09 10° N visible
